Wind_Speed
7 6 6 6 5 5 5 5 5 5 6 9 10 11 13 14 16 18 20 22 25 27 29 31 33 35 36 38 40 41 42 43 44 45 46 46 46 46 46 46 46 46 46 45
6 5 5 4 3 3 3 3 4 4 6 7 10 12 14 16 17 20 22 24 26 28 30 32 35 36 38 40 42 43 44 45 46 47 48 48 48 48 48 48 48 47 47 46
3 3 2 1 1 1 2 3 4 5 7 8 10 12 15 17 19 22 24 26 28 31 33 35 37 39 41 43 44 46 47 48 49 49 49 49 49 49 49 49 49 49 49 48
0 1 1 1 2 3 3 4 6 8 10 11 13 15 17 19 22 24 27 29 31 34 36 38 40 42 44 46 47 48 49 50 51 52 51 51 51 52 51 51 51 51 50 50
2 2 2 3 4 4 5 6 8 10 12 13 15 17 19 22 24 26 29 32 34 36 39 41 43 44 46 48 49 51 51 52 52 52 52 52 52 52 52 52 51 51 51 50
2 3 3 4 5 6 7 8 10 12 14 16 17 19 21 24 27 29 32 35 37 40 42 43 45 46 48 49 50 51 51 52 52 52 52 52 52 52 51 51 50 50 49 49
3 3 4 5 7 8 9 10 12 14 16 19 21 23 26 28 30 33 35 37 40 41 43 45 47 48 50 51 53 53 52 52 52 52 51 51 51 51 50 50 50 49 49 48
5 5 5 7 9 10 11 13 15 17 19 21 23 26 28 31 33 36 38 40 42 44 46 47 49 50 52 53 54 54 54 53 53 52 51 51 50 50 50 49 49 48 48 48
6 6 8 9 10 12 14 16 18 20 22 24 26 29 31 34 36 38 40 42 44 46 48 50 51 53 54 55 56 56 55 55 54 53 53 52 51 50 49 49 48 47 47 47
8 9 10 12 13 15 17 19 21 23 25 27 29 32 34 36 38 40 42 44 46 48 50 52 54 55 56 57 57 57 57 56 55 55 54 53 52 51 49 48 48 47 47 46
10 12 13 15 17 19 21 22 25 27 29 31 33 35 37 39 41 43 45 46 48 50 51 52 54 55 55 56 55 55 55 54 54 54 53 52 51 50 49 48 48 47 47 46
13 15 16 18 20 22 24 26 28 30 33 35 37 38 40 42 44 45 47 48 49 51 51 52 53 54 53 53 53 53 52 52 51 51 51 51 51 50 49 48 48 47 47 47
16 17 19 21 23 25 27 30 32 34 36 38 40 41 43 45 46 47 48 49 50 50 51 52 53 53 52 52 52 51 51 50 50 50 49 49 49 49 48 48 48 47 47 46
18 20 22 24 26 29 31 33 36 38 40 41 43 44 45 46 47 48 48 49 50 50 50 50 50 50 49 49 49 48 48 48 48 48 48 48 48 48 48 48 47 46 46 46
21 23 25 27 30 32 35 37 39 40 42 44 45 46 47 47 47 48 49 50 49 48 48 48 47 46 45 44 43 43 43 43 44 45 46 46 46 47 48 47 47 46 46 46
24 26 29 31 34 36 38 40 41 43 44 46 47 48 48 48 48 49 49 49 48 47 47 46 44 43 42 40 40 40 40 40 41 42 43 44 45 45 46 47 47 46 46 45
27 29 31 34 36 39 41 42 43 45 46 48 49 49 49 49 49 49 49 49 47 46 46 45 43 41 40 39 37 37 37 38 39 39 40 41 42 43 44 44 45 45 45 44
29 32 34 37 39 41 43 44 45 47 49 50 50 51 51 51 50 50 49 47 46 45 45 43 41 40 39 37 36 35 35 35 36 35 35 36 38 39 41 42 42 43 44 43
31 34 36 39 41 43 44 46 48 50 51 52 53 53 53 52 51 50 48 46 44 43 43 42 40 38 36 35 33 32 31 30 31 31 31 32 34 36 38 39 40 41 41 41
33 35 38 40 43 45 46 48 50 52 53 54 55 55 54 53 52 50 48 45 44 43 41 39 37 35 34 32 30 29 28 27 27 27 28 30 31 32 34 36 37 38 39 39
35 37 40 42 44 47 48 50 52 54 56 56 56 56 54 53 51 49 46 44 42 41 39 36 34 33 30 28 27 26 25 25 24 24 25 27 28 30 32 33 35 36 37 37
36 39 41 44 46 48 51 53 55 56 57 57 57 56 54 52 50 47 45 43 40 38 36 33 31 30 27 26 24 23 22 22 22 22 22 24 25 27 29 31 32 33 34 34
37 40 43 46 48 50 53 55 57 58 58 58 57 56 54 51 49 46 43 41 38 35 33 30 28 27 25 23 22 21 21 20 20 20 21 22 23 25 26 28 29 30 32 32
38 41 44 47 49 52 54 57 58 58 58 58 57 55 53 50 47 44 41 38 34 31 29 28 26 24 22 20 19 19 18 17 18 18 19 20 21 22 23 26 27 29 30 30
40 43 45 48 50 53 56 57 58 58 58 57 56 55 52 48 45 42 38 34 31 28 27 25 23 22 20 18 17 15 14 15 15 16 17 18 19 20 21 23 24 26 27 28
41 44 47 49 52 54 57 58 58 58 57 56 55 52 49 46 43 39 35 31 29 27 25 23 22 20 18 16 14 12 12 12 12 13 14 15 16 17 18 20 21 23 24 25
42 45 48 50 53 55 57 57 57 57 56 54 52 50 47 44 40 37 33 30 28 26 24 22 20 18 16 14 12 10 9 9 9 10 11 12 13 15 17 19 20 21 22 23
Wind_Direction
104 103 111 123 128 133 139 152 174 190 201 211 220 225 232 239 243 246 248 251 251 252 253 252 252 252 253 253 254 255 255 256 257 258 259 259 259 260 261 261 261 261 262 263
98 99 106 118 129 147 163 181 194 213 224 232 236 239 241 245 248 251 253 256 257 257 257 257 257 257 256 256 257 257 257 257 258 258 259 259 260 260 260 261 261 261 261 262
102 95 104 126 166 199 224 237 242 246 254 256 255 253 252 254 256 257 258 259 260 261 261 261 260 260 260 260 260 260 260 260 259 259 260 260 260 260 260 260 260 260 261 262
34 344 296 293 287 282 280 276 272 270 271 271 269 266 265 264 264 264 264 264 265 265 265 264 263 263 262 262 262 263 262 262 261 261 262 261 261 261 261 260 260 261 261 261
10 352 329 312 302 294 290 286 284 283 282 280 278 275 274 273 271 270 270 270 270 270 269 268 267 266 265 265 264 265 264 264 264 263 263 263 263 262 262 262 262 261 261 261
0 349 337 330 321 313 306 298 293 291 290 288 286 284 282 279 278 276 275 274 273 272 272 271 270 269 267 267 266 266 266 266 265 264 264 264 263 263 263 262 262 262 261 260
20 359 348 337 325 319 314 310 304 299 295 292 291 289 287 284 282 280 279 278 277 276 275 274 273 271 270 268 268 267 267 266 265 264 264 264 263 262 262 261 261 260 259 259
16 357 342 336 330 324 318 313 309 304 301 298 295 293 291 289 287 285 283 281 280 279 278 277 275 273 271 270 269 269 268 268 267 265 264 263 262 261 260 259 259 258 258 257
2 351 340 334 328 322 317 313 310 307 305 302 299 297 294 292 290 288 286 284 283 281 280 279 277 275 274 272 271 270 269 268 267 266 264 263 262 261 260 259 258 256 256 256
343 337 331 327 323 319 315 313 310 308 307 305 303 301 298 296 293 291 289 288 286 284 282 281 279 277 276 274 272 271 269 268 267 265 264 262 261 259 258 257 256 255 254 253
331 329 326 324 322 319 316 314 312 310 309 308 305 303 301 298 295 294 292 290 289 288 286 284 282 280 279 276 273 271 270 268 267 265 263 261 259 258 256 255 254 253 252 252
327 327 326 324 323 321 319 317 315 313 311 309 308 305 303 301 299 297 296 294 292 291 288 287 285 283 281 278 275 273 270 268 266 265 262 260 257 255 253 252 251 250 250 250
326 325 325 324 324 323 321 319 317 316 314 312 311 309 307 305 303 301 299 298 296 294 292 290 288 285 281 279 277 274 271 268 266 264 262 258 255 252 250 249 249 248 247 247
324 324 324 324 323 323 322 321 319 318 317 315 314 312 311 309 307 305 303 302 300 298 296 294 291 288 284 281 278 274 271 268 265 263 261 258 254 250 248 246 246 246 246 246
324 324 324 324 324 323 323 322 321 320 319 318 317 316 314 312 310 309 307 305 304 301 299 297 294 291 288 285 280 275 272 269 266 263 260 257 254 250 247 245 243 243 243 243
324 325 325 325 325 325 324 323 323 322 322 321 320 319 317 315 314 312 310 308 306 304 302 300 298 295 292 287 281 276 273 270 268 264 261 256 252 249 246 244 242 240 240 240
323 325 325 326 326 325 325 325 325 324 324 323 322 321 320 318 317 315 313 311 309 307 305 303 300 297 294 290 283 278 275 272 269 265 261 255 250 247 244 242 240 238 237 238
322 324 326 326 327 326 326 326 326 326 326 325 324 323 322 320 319 317 315 312 310 309 307 305 302 299 296 292 286 282 278 273 269 265 260 253 248 245 242 240 238 236 235 235
322 324 326 327 327 327 327 327 327 327 327 327 326 325 323 322 320 318 316 314 312 310 308 306 304 301 298 293 288 284 280 274 268 263 257 251 247 243 240 238 236 234 234 234
322 324 326 327 327 328 328 328 328 328 328 328 327 326 325 323 321 319 317 316 314 312 311 309 306 304 300 295 288 283 280 275 268 261 254 249 245 241 238 235 234 232 232 233
322 324 326 327 328 329 329 329 329 329 329 328 328 327 326 324 323 321 319 317 316 314 312 311 308 305 301 296 289 284 278 274 269 262 254 247 242 240 237 234 233 232 231 232
322 324 326 328 328 329 329 329 330 329 329 329 328 328 327 326 324 323 321 319 318 316 314 312 310 307 303 297 290 284 278 272 267 259 251 246 242 239 236 233 230 229 229 229
322 324 326 328 328 329 329 330 330 330 330 330 330 329 328 327 326 324 322 321 319 318 316 314 313 310 305 298 291 284 278 270 262 255 249 245 242 239 234 230 227 227 226 227
322 324 326 327 328 328 329 330 331 331 331 331 331 330 330 329 327 326 325 323 321 320 319 317 315 312 308 302 294 286 278 268 258 253 248 243 240 236 231 228 226 225 225 225
322 324 326 327 328 329 330 331 331 332 332 332 332 332 332 331 330 329 327 326 324 323 321 319 318 315 311 306 300 290 279 269 258 250 246 242 237 232 229 227 226 224 223 223
322 324 326 327 328 329 330 331 332 333 333 333 333 334 333 333 332 331 329 327 326 324 322 320 319 317 313 309 303 292 278 267 258 249 242 236 231 227 225 223 221 220 221 221
322 324 326 327 329 330 331 332 333 333 334 335 335 336 336 335 334 333 331 328 326 325 322 321 320 318 316 312 307 297 282 267 253 241 233 228 224 221 221 221 219 220 220 220
Height
5621 5622 5623 5623 5624 5625 5626 5627 5628 5629 5629 5631 5632 5634 5635 5636 5637 5638 5639 5640 5641 5642 5643 5644 5644 5645 5646 5648 5649 5650 5652 5653 5654 5656 5657 5658 5660 5661 5663 5664 5666 5667 5668 5670
5622 5623 5624 5624 5625 5626 5626 5627 5628 5628 5630 5630 5631 5631 5632 5633 5634 5634 5635 5635 5636 5636 5636 5637 5637 5637 5637 5638 5639 5639 5640 5641 5642 5643 5644 5646 5647 5648 5650 5651 5653 5654 5656 5657
5623 5624 5625 5625 5626 5626 5626 5627 5627 5628 5629 5628 5628 5629 5629 5629 5629 5630 5630 5629 5629 5629 5629 5628 5628 5628 5628 5627 5628 5628 5628 5629 5629 5630 5631 5632 5634 5635 5636 5637 5639 5641 5642 5644
5623 5624 5624 5627 5625 5625 5625 5625 5626 5626 5626 5626 5626 5625 5625 5625 5624 5624 5623 5622 5622 5621 5619 5619 5618 5617 5616 5615 5615 5615 5615 5615 5615 5616 5617 5618 5619 5620 5622 5623 5625 5627 5628 5630
5622 5623 5623 5624 5623 5623 5624 5624 5623 5623 5622 5622 5621 5621 5620 5619 5618 5617 5616 5614 5612 5611 5609 5607 5606 5605 5604 5603 5602 5601 5601 5600 5600 5601 5602 5603 5604 5605 5607 5608 5610 5612 5614 5615
5622 5622 5622 5624 5622 5621 5622 5621 5620 5619 5619 5618 5617 5616 5615 5613 5611 5609 5607 5604 5602 5600 5598 5596 5594 5592 5590 5589 5587 5587 5586 5586 5585 5586 5586 5587 5588 5590 5591 5593 5595 5596 5598 5600
5621 5621 5621 5621 5620 5620 5620 5620 5617 5616 5614 5613 5611 5610 5608 5605 5602 5599 5597 5594 5591 5588 5585 5582 5580 5577 5575 5573 5572 5571 5570 5570 5570 5570 5571 5571 5573 5574 5575 5577 5579 5581 5583 5585
5621 5620 5622 5619 5618 5618 5617 5614 5613 5611 5609 5607 5605 5602 5599 5596 5593 5589 5585 5581 5578 5574 5571 5567 5564 5561 5559 5557 5555 5554 5553 5553 5553 5553 5554 5555 5556 5558 5559 5561 5563 5565 5567 5570
5621 5622 5619 5617 5616 5614 5613 5611 5608 5606 5604 5601 5597 5594 5590 5586 5582 5577 5573 5568 5564 5560 5556 5551 5547 5544 5541 5539 5537 5536 5535 5534 5534 5535 5536 5537 5539 5541 5543 5545 5547 5550 5552 5555
5619 5618 5616 5614 5612 5611 5608 5606 5603 5600 5597 5593 5589 5585 5580 5575 5570 5565 5559 5554 5549 5544 5539 5535 5530 5526 5523 5520 5518 5516 5516 5515 5515 5516 5517 5519 5521 5524 5526 5529 5531 5534 5537 5540
5617 5616 5613 5611 5609 5606 5603 5600 5597 5593 5589 5584 5580 5574 5569 5563 5557 5551 5546 5540 5534 5528 5523 5517 5512 5507 5503 5499 5497 5496 5496 5496 5496 5497 5498 5500 5502 5505 5509 5512 5515 5518 5521 5524
5615 5613 5610 5608 5604 5601 5597 5593 5589 5585 5580 5574 5568 5563 5556 5550 5543 5537 5530 5524 5518 5511 5505 5500 5494 5489 5484 5480 5478 5477 5476 5476 5476 5477 5479 5481 5484 5487 5491 5495 5498 5502 5505 5509
5611 5608 5605 5602 5599 5595 5591 5586 5581 5576 5570 5564 5557 5550 5543 5536 5529 5522 5515 5508 5501 5494 5487 5481 5475 5470 5465 5462 5459 5457 5457 5457 5457 5458 5460 5462 5465 5469 5473 5478 5481 5486 5490 5494
5606 5603 5600 5596 5592 5588 5583 5578 5572 5566 5559 5552 5545 5538 5530 5522 5514 5506 5499 5491 5484 5477 5470 5463 5457 5451 5446 5443 5440 5439 5438 5438 5439 5440 5442 5444 5447 5451 5456 5460 5465 5470 5475 5479
5601 5598 5594 5590 5585 5580 5575 5569 5562 5555 5548 5541 5533 5525 5516 5508 5500 5491 5483 5475 5467 5460 5453 5446 5440 5434 5429 5426 5423 5421 5421 5420 5421 5422 5424 5426 5430 5434 5438 5443 5449 5454 5459 5464
5596 5592 5588 5583 5578 5572 5566 5559 5552 5545 5537 5529 5521 5512 5503 5494 5486 5477 5468 5460 5452 5444 5437 5430 5425 5419 5414 5410 5408 5406 5405 5404 5404 5405 5406 5409 5413 5417 5422 5427 5433 5439 5444 5450
5590 5585 5581 5576 5570 5564 5557 5550 5542 5535 5526 5518 5509 5500 5490 5481 5472 5463 5454 5445 5437 5430 5423 5416 5411 5405 5401 5396 5394 5392 5390 5389 5389 5389 5390 5393 5396 5401 5406 5411 5417 5424 5430 5435
5583 5579 5574 5568 5562 5555 5548 5540 5532 5524 5516 5507 5497 5487 5478 5468 5459 5450 5441 5432 5424 5416 5409 5402 5397 5392 5388 5384 5380 5378 5377 5376 5375 5375 5376 5378 5382 5386 5391 5397 5403 5409 5416 5421
5576 5571 5566 5560 5553 5546 5539 5531 5522 5514 5505 5495 5485 5475 5465 5455 5446 5436 5427 5419 5411 5404 5397 5390 5384 5379 5375 5371 5368 5366 5364 5363 5363 5363 5364 5367 5369 5374 5379 5384 5390 5396 5402 5408
5569 5564 5558 5552 5545 5537 5530 5521 5512 5503 5494 5484 5473 5463 5452 5442 5432 5423 5415 5406 5398 5391 5385 5379 5373 5368 5364 5360 5357 5355 5354 5353 5352 5352 5354 5356 5359 5363 5367 5373 5378 5384 5390 5396
5561 5556 5550 5543 5536 5528 5520 5512 5502 5493 5483 5472 5461 5451 5441 5430 5420 5411 5402 5395 5387 5379 5373 5367 5362 5357 5353 5350 5347 5346 5344 5343 5343 5343 5345 5347 5350 5354 5358 5362 5368 5373 5379 5385
5553 5548 5541 5534 5527 5519 5510 5502 5492 5482 5471 5461 5450 5439 5429 5419 5409 5399 5391 5383 5376 5369 5363 5358 5353 5348 5344 5341 5339 5337 5336 5335 5335 5335 5337 5339 5342 5345 5349 5353 5358 5364 5370 5375
5546 5540 5533 5526 5518 5510 5501 5492 5482 5471 5460 5449 5438 5428 5417 5407 5398 5389 5381 5373 5366 5359 5354 5349 5344 5340 5337 5334 5331 5330 5329 5328 5328 5329 5330 5332 5335 5338 5341 5346 5351 5356 5361 5367
5538 5531 5525 5517 5509 5501 5491 5481 5471 5460 5449 5438 5427 5417 5407 5397 5387 5378 5371 5363 5357 5352 5347 5342 5338 5334 5330 5327 5325 5323 5322 5322 5322 5323 5324 5326 5329 5331 5335 5339 5344 5349 5354 5359
5529 5523 5516 5508 5500 5491 5482 5472 5461 5450 5439 5428 5417 5406 5396 5387 5378 5370 5362 5356 5350 5345 5341 5336 5332 5329 5325 5322 5320 5318 5317 5317 5317 5318 5319 5321 5324 5326 5330 5333 5338 5342 5347 5352
5521 5515 5508 5500 5491 5482 5473 5462 5452 5441 5430 5419 5408 5397 5387 5378 5369 5362 5355 5349 5344 5340 5335 5331 5328 5324 5321 5318 5316 5314 5314 5313 5314 5314 5316 5317 5319 5322 5325 5329 5333 5337 5342 5346
5513 5506 5498 5490 5482 5473 5463 5452 5442 5432 5421 5410 5400 5390 5380 5371 5363 5355 5349 5344 5339 5334 5330 5327 5323 5320 5317 5315 5313 5311 5311 5310 5311 5312 5313 5315 5317 5319 5322 5326 5329 5333 5337 5341